Orbital Elements at Epoch 2459200.5 (2020-Dec-17.0) TDB
Reference: JPL 42 (heliocentric ecliptic J2000)
Element | Value | Uncertainty (1-sigma) | Units |
e | .07675232125085917 | 3.4612e-08 | |
a | 3.000167229786496 | 1.6297e-08 | au |
q | 2.769897430759622 | 1.0513e-07 | au |
i | 10.38270458093393 | 4.2611e-06 | deg |
node | 14.2480593392335 | 2.085e-05 | deg |
peri | 286.3308521540021 | 3.4956e-05 | deg |
M | 241.4545180725869 | 2.975e-05 | deg |
tp | 2459825.527501911357 (2022-Sep-03.02750191) | 0.0001581 | TDB |
period | 1898.08921461777 5.20 | 1.5466e-05 4.234e-08 | d yr |
n | .1896644252691227 | 1.5454e-09 | deg/d |
Q | 3.230437028813369 | 1.7548e-08 | au |
|
| | Orbit Determination Parameters
Additional Information
|